Regional Weather Roundup
Issued by NWS Cleveland, OH

Home | Current Version | Previous Version | Graphics & Text | Print | Product List | Glossary On
Versions: 1 2 3 4 5 6 7 8 9 10 11 12 13 14 15 16 17 18 19 20 21 22 23 24 25 26 27 28 29 30 31 32 33 34 35 36 37 38 39 40 41 42 43 44 45 46 47 48 49 50
000
ASUS41 KCLE 282310
RWRCLE
OHIO REGIONAL WEATHER ROUNDUP
NATIONAL WEATHER SERVICE WILMINGTON, OH
700 PM EDT FRI AUG 28 2015

NOTE: "FAIR" INDICATES FEW OR NO CLOUDS BELOW 12,000 FEET WITH NO
SIGNIFICANT WEATHER AND/OR OBSTRUCTIONS TO VISIBILITY.

OHZ001>008-015>018-024>027-034-035-043-044-290000-
   NORTHWEST OHIO

CITY           SKY/WX    TMP DP  RH WIND       PRES   REMARKS
DEFIANCE       PTSUNNY   76  57  51 S3        30.12F
FINDLAY        PTSUNNY   75  59  57 CALM      30.13F
TOLEDO EXPRESS PTSUNNY   71  62  73 CALM      30.13S
TOLEDO EXEC    PTSUNNY   76  55  48 W3        30.13F
LIMA           PTSUNNY   74  56  53 SW3       30.14F
$$

OHZ009>014-019>023-028>033-038-089-290000-
   NORTHEAST OHIO

CITY           SKY/WX    TMP DP  RH WIND       PRES   REMARKS
CLE-HOPKINS    PTSUNNY   70  57  63 NE8       30.18R
CLE-LAKEFRONT  PTSUNNY   71  59  65 NE9       30.15S
CUY CO. ARPT   PTSUNNY   70  57  64 NE9       30.18R
LORAIN-ELYRIA  PTSUNNY   71  57  61 NE7       30.16S
ASHTABULA      SUNNY     69  58  67 N5        30.18S
AKRON-CANTON   PTSUNNY   77  53  43 W6        30.15S
WOOSTER        MOSUNNY   74  55  51 CALM      30.16S
MANSFIELD      CLOUDY    75  54  47 W3        30.16S
YOUNGSTOWN     PTSUNNY   73  56  54 NE5       30.16S
$$

OHZ042-051>053-060>062-070>072-077>081-290000-
  SOUTHWEST OHIO

CITY           SKY/WX    TMP DP  RH WIND       PRES   REMARKS
CINC-COVINGTON PTSUNNY   78  57  48 SE6       30.12S
CINC-LUNKEN    PTSUNNY   78  59  51 E3        30.11F
HAMILTON       PTSUNNY   77  59  53 E6        30.12F
DAYTON         PTSUNNY   73  57  57 E8        30.14F
WRIGHT-PAT AFB PTSUNNY   77  56  49 E6        30.13F
DAYTON GENERAL PTSUNNY   74  57  55 SE3       30.13F
WILMINGTON     PTSUNNY   74  62  66 CALM      30.14S
$$

OHZ036-037-039>041-045>050-054>059-063>069-073>076-082>088-290000-
  CENTRAL AND SOUTHEAST OHIO

CITY           SKY/WX    TMP DP  RH WIND       PRES   REMARKS
COLUMBUS       PTSUNNY   77  52  41 CALM      30.14R
OSU AIRPORT    PTSUNNY   74  57  55 W6        30.14S
BOLTON FIELD   SUNNY     73  61  64 CALM      30.15S
RICKENBACK AFB MOSUNNY   75  56  50 CALM      30.14S
NEWARK         SUNNY     73  59  61 CALM      30.14R
MARION         PTSUNNY   74  56  53 CALM      30.15F
LANCASTER      MOSUNNY   74  59  59 W3        30.14S
ZANESVILLE     MOSUNNY   80  51  36 NE6       30.13S
NEW PHILLY     PTSUNNY   77  54  44 CALM      30.15S
$$


USA.gov is the U.S. government's official web portal to all federal, state and local government web resources and services.